Terminal Aerodrome Forecast
Issued by NWS

Home | Current Version | Previous Version | Text Only | Print | Product List | Glossary On
Versions: 1 2 3 4 5 6 7 8 9 10 11 12 13 14 15 16 17 18 19 20 21 22 23 24 25 26 27 28 29 30 31
000
FTUS43 KDMX 041733
TAFOTM
TAF
KOTM 041733Z 0418/0518 33017G23KT P6SM FEW250
     FM042300 33014G20KT P6SM BKN025
     FM050400 33009KT P6SM SKC=

USA.gov is the U.S. government's official web portal to all federal, state and local government web resources and services.